Vertical_Velocity
-1 -3 -3 -7 -13 -5 -2 -2 -6 -4 -5 -19 1 -1 2 0 -0 -2 -1 0 0 1 0 0 1 2 -0 2 5 -0 -2 2 -0 -6 -15 3 2 2 -0 -1 -2 -1 0 4
-1 -4 -4 -3 -2 -4 -9 -4 -2 -3 -1 -5 -1 -3 -0 -1 -3 0 -1 -0 0 0 1 -0 1 -0 2 -1 -0 2 -4 -3 -2 -14 -7 -6 -1 1 1 1 -1 -1 3 5
-4 -4 -4 -6 -3 -4 -2 -0 -7 -5 -10 0 -2 0 -0 -1 2 1 -0 1 -3 -2 -1 -1 -1 -2 -4 -4 2 4 3 -0 -2 -1 2 4 -1 -2 -1 3 4 -4 -7 -4
-6 -4 -4 -3 -4 -5 -1 -3 1 3 -2 -5 -0 -1 0 -0 -3 -1 1 0 -1 0 -0 -2 1 -2 -9 -4 -5 -1 -3 1 1 -1 0 1 3 2 -2 4 -6 7 -10 1
-6 -6 -5 -2 -1 -4 -27 -3 -2 -2 -0 1 -1 -1 1 1 -1 3 -2 1 -1 1 1 -0 -2 7 1 1 -5 0 -1 -4 1 -6 -2 2 1 -1 0 0 -1 0 1 2
-4 -4 -2 -3 -6 -9 -5 0 1 -1 1 -1 -2 1 -0 1 1 -5 3 6 4 0 -3 3 -3 1 2 -3 5 -1 2 1 1 -3 1 -1 -1 5 1 1 -0 5 -0 5
-3 -3 -4 -7 -4 -4 -3 -3 -5 -2 -1 -1 1 -0 2 1 1 3 -4 4 4 -3 -2 -2 -4 5 1 4 -6 1 0 1 1 -2 -1 -2 3 1 2 3 2 0 -0 -0
-1 -0 -3 -3 -3 -3 -7 -4 -3 -1 -1 1 -2 -2 1 -3 -3 -0 4 -4 7 4 3 -0 -2 -5 -7 -3 1 1 0 1 -1 3 1 -7 -8 2 -1 7 -18 0 1 -1
1 -2 -1 -4 -3 -4 1 -3 -1 1 2 -5 1 1 2 0 -0 -4 -6 -11 -0 1 2 1 1 -0 0 -5 -7 -1 -3 1 -3 -1 2 0 3 -2 1 4 -6 0 5 -0
0 -0 1 -2 -3 -2 -1 2 -1 -2 2 -4 3 0 1 1 1 1 -1 -3 -11 2 0 1 0 -2 0 0 1 -2 -2 -2 -1 -1 -0 -8 -1 1 -2 -3 -7 -1 4 2
-2 -1 -2 1 -1 -3 -0 4 1 1 2 -11 -1 3 1 1 2 -0 -9 -7 -1 -2 -3 1 -0 -0 -1 -1 -2 -1 -1 2 -1 -0 1 -5 5 -13 -0 5 -11 6 -3 -1
-1 -1 -2 -2 -1 3 -3 -5 1 2 -0 -8 6 1 5 8 9 11 -0 -7 0 -4 -0 -1 -1 -0 -1 -2 -3 -3 -1 5 3 6 0 -1 9 8 3 8 10 -5 5 -2
-1 -1 -1 -4 0 -1 1 0 1 -2 -0 -15 -4 -3 1 8 7 3 5 2 3 1 8 -3 -2 -2 -1 -1 -4 0 -7 -0 -1 -3 -6 -2 -6 -8 3 -3 3 -2 0 1
0 -1 -2 0 -2 -1 -2 -4 -0 3 -0 4 -14 4 4 4 3 0 4 6 0 2 4 -0 -1 -1 1 -2 -2 -1 2 1 2 -5 -6 -14 -3 -8 1 -8 -3 -3 -3 5
0 1 1 -0 -2 0 -1 -1 -0 2 0 -0 -10 -4 1 8 3 3 7 6 5 4 1 -0 -3 0 2 -0 -1 0 2 3 3 -2 -3 13 -7 -7 -2 2 -1 -5 1 -15
0 2 -0 -2 1 2 2 -0 -2 -1 -5 2 -3 2 -2 -3 -3 -11 -9 -3 -1 7 2 -2 0 10 -4 0 -0 7 1 2 11 4 3 5 -0 0 0 7 3 1 9 7
0 -0 -3 -1 0 -0 -3 -2 -1 -1 -4 1 -6 -7 1 -1 -5 -12 -8 -4 3 6 1 1 -0 -2 -3 -1 0 -4 2 2 -5 0 3 -14 -5 -4 -4 8 -0 1 3 6
0 -1 1 1 -2 -3 -1 1 0 1 0 1 -2 -8 -3 0 -5 -6 2 -2 -0 2 1 0 -2 -2 -2 -2 -0 -3 -1 -4 -1 -4 3 9 3 -2 -1 1 1 -3 -1 1
0 -0 2 -1 0 -3 1 -0 1 -4 -1 -0 -0 -1 -4 -3 -3 0 -2 4 -1 3 1 1 -9 -0 0 2 3 -0 -0 9 2 -3 3 1 1 2 -0 1 -4 3 -3 -0
-4 0 0 -2 -1 -1 -1 -1 0 -0 -1 -1 -1 3 -3 3 -0 -4 -1 1 -0 -2 2 1 -3 2 5 -0 1 1 -1 2 4 -3 -22 -12 -7 1 -1 3 6 8 9 4
-7 -6 -2 -2 -1 -1 -0 -2 -4 -1 -2 -0 2 1 2 1 3 -0 3 -1 -1 -2 -0 -6 1 0 1 -1 -0 3 2 3 5 8 9 7 10 5 1 -5 3 2 3 2
-2 -3 -3 -1 -0 1 -6 -2 -3 -4 -5 -1 1 -2 1 -2 2 -0 -2 -1 -5 -1 2 -6 -0 2 -1 -1 -2 -3 0 1 0 3 1 2 3 0 2 4 1 2 8 -0
1 -3 -0 -2 -1 -11 -6 -2 -6 -3 -1 2 -4 -10 0 -2 2 -0 -2 -4 -3 1 -4 1 2 1 0 -0 1 -2 3 2 3 1 2 3 1 0 -2 0 4 5 2 2
-2 -2 -6 -6 -5 -2 -2 -2 -2 -0 0 -2 -1 -1 1 1 -3 1 -3 -5 -3 -3 -2 1 1 2 1 -0 2 -3 -4 -1 2 0 -2 2 -0 -2 4 1 5 0 -1 4
-2 -1 -3 -1 2 0 -0 0 0 1 2 -1 0 0 0 -1 -3 -0 -3 -8 -1 1 2 1 3 1 -0 -1 -1 0 -1 -1 0 -0 -2 0 1 -2 2 1 -0 3 3 0
-1 -2 -3 -0 -1 -1 0 0 -0 0 0 2 1 -1 -3 -2 -1 -3 -0 -2 -0 -1 -0 1 1 -2 0 -1 1 1 1 1 2 -0 -1 2 0 -5 2 5 -2 2 2 -0
-1 -1 -2 -0 -1 -1 -1 1 -0 -0 -1 -1 -0 -2 -5 -1 -3 -1 -0 -1 0 1 -1 2 1 -1 -1 0 2 1 -1 -1 1 -0 -0 1 3 5 0 -5 -1 0 3 2
Height
1548 1542 1537 1531 1525 1518 1512 1508 1509 1508 1503 1507 1515 1522 1519 1519 1517 1516 1515 1513 1513 1515 1514 1513 1507 1502 1499 1501 1498 1497 1492 1491 1485 1466 1446 1448 1450 1454 1455 1456 1453 1452 1442 1443
1548 1542 1537 1531 1525 1519 1514 1512 1512 1512 1506 1520 1525 1521 1519 1520 1520 1519 1517 1517 1516 1517 1516 1515 1506 1507 1503 1501 1502 1502 1491 1493 1494 1464 1448 1452 1457 1459 1465 1467 1470 1454 1452 1443
1548 1543 1537 1532 1527 1521 1517 1515 1518 1516 1517 1523 1525 1524 1523 1523 1522 1521 1521 1520 1518 1519 1519 1519 1514 1510 1505 1502 1501 1497 1490 1491 1490 1487 1482 1483 1472 1464 1469 1469 1467 1460 1452 1446
1548 1544 1538 1533 1528 1523 1519 1521 1530 1530 1530 1526 1526 1525 1527 1527 1527 1524 1521 1520 1523 1526 1524 1519 1516 1511 1504 1501 1498 1497 1496 1494 1492 1489 1485 1480 1473 1466 1463 1464 1459 1456 1444 1444
1548 1545 1540 1535 1530 1527 1522 1528 1532 1532 1532 1530 1529 1530 1531 1529 1527 1526 1524 1523 1522 1520 1520 1518 1514 1511 1507 1504 1498 1497 1497 1494 1491 1488 1478 1475 1469 1462 1457 1451 1451 1450 1449 1450
1549 1546 1543 1539 1534 1530 1531 1536 1536 1535 1536 1534 1533 1536 1533 1531 1529 1525 1523 1521 1519 1517 1515 1511 1507 1503 1497 1497 1495 1492 1498 1494 1488 1486 1477 1472 1467 1460 1460 1463 1460 1457 1458 1463
1551 1548 1545 1542 1540 1537 1537 1538 1538 1537 1536 1534 1536 1535 1533 1531 1530 1527 1522 1520 1516 1513 1510 1506 1502 1493 1490 1488 1484 1488 1491 1492 1489 1485 1480 1488 1464 1461 1462 1463 1460 1461 1460 1458
1553 1550 1548 1545 1543 1541 1539 1539 1540 1540 1539 1537 1535 1533 1532 1530 1529 1527 1524 1521 1521 1516 1511 1505 1501 1496 1490 1486 1486 1488 1491 1494 1490 1483 1482 1473 1463 1464 1466 1465 1458 1459 1460 1458
1553 1550 1548 1546 1544 1543 1541 1540 1540 1539 1539 1537 1534 1532 1531 1530 1528 1525 1519 1514 1513 1513 1511 1506 1504 1501 1496 1494 1490 1486 1487 1486 1495 1488 1487 1484 1467 1464 1465 1460 1459 1456 1456 1452
1554 1551 1548 1546 1545 1543 1541 1540 1539 1538 1538 1534 1533 1532 1530 1528 1525 1524 1519 1514 1511 1510 1511 1507 1502 1503 1498 1499 1498 1495 1491 1490 1494 1491 1497 1483 1469 1469 1462 1467 1466 1457 1455 1452
1554 1551 1549 1547 1545 1543 1541 1541 1539 1539 1537 1532 1529 1528 1527 1524 1523 1523 1517 1516 1512 1510 1514 1509 1510 1513 1505 1509 1501 1497 1502 1493 1495 1488 1486 1489 1473 1468 1475 1470 1460 1459 1454 1450
1553 1551 1549 1546 1545 1543 1540 1538 1537 1536 1535 1530 1526 1523 1522 1521 1519 1517 1514 1514 1511 1509 1510 1510 1511 1510 1507 1506 1507 1492 1495 1493 1489 1488 1479 1476 1476 1477 1472 1467 1459 1454 1450 1444
1552 1550 1548 1546 1544 1542 1540 1537 1535 1533 1531 1527 1524 1522 1522 1520 1516 1515 1513 1508 1507 1505 1506 1507 1509 1514 1503 1511 1501 1495 1498 1495 1495 1494 1477 1476 1474 1470 1467 1462 1454 1447 1442 1434
1550 1548 1545 1543 1541 1539 1537 1535 1533 1531 1531 1528 1522 1520 1517 1518 1517 1516 1512 1507 1504 1503 1503 1503 1505 1508 1500 1498 1495 1500 1507 1499 1498 1490 1480 1475 1468 1468 1461 1451 1445 1436 1429 1423
1549 1546 1543 1540 1538 1536 1534 1532 1532 1531 1534 1531 1522 1518 1517 1515 1514 1514 1511 1507 1503 1500 1500 1500 1503 1496 1496 1493 1497 1507 1507 1503 1499 1491 1486 1481 1468 1461 1455 1446 1437 1429 1420 1406
1547 1544 1540 1537 1534 1532 1531 1531 1532 1531 1531 1528 1525 1519 1516 1515 1513 1511 1507 1503 1500 1498 1497 1496 1495 1495 1496 1496 1500 1505 1507 1504 1499 1491 1484 1476 1466 1458 1449 1438 1428 1419 1410 1400
1545 1541 1537 1534 1531 1529 1529 1532 1531 1529 1529 1528 1526 1522 1519 1515 1512 1507 1502 1499 1496 1495 1495 1494 1496 1497 1497 1505 1512 1506 1502 1498 1491 1486 1478 1468 1460 1450 1440 1433 1422 1412 1402 1391
1541 1537 1534 1531 1530 1529 1529 1529 1527 1525 1526 1526 1526 1523 1522 1517 1512 1507 1501 1498 1496 1495 1495 1496 1499 1501 1504 1513 1513 1508 1502 1494 1488 1482 1476 1469 1459 1449 1440 1430 1419 1407 1397 1386
1537 1534 1531 1531 1530 1530 1530 1528 1527 1525 1529 1526 1525 1527 1527 1518 1515 1509 1503 1500 1499 1498 1496 1498 1502 1510 1516 1519 1512 1506 1501 1496 1489 1479 1472 1465 1457 1448 1438 1428 1417 1408 1397 1386
1534 1533 1531 1530 1531 1529 1529 1528 1529 1528 1529 1529 1527 1526 1524 1522 1517 1511 1509 1505 1506 1507 1500 1500 1508 1517 1520 1517 1512 1507 1500 1493 1487 1478 1468 1462 1454 1445 1437 1428 1419 1410 1401 1390
1534 1533 1532 1531 1529 1528 1527 1528 1528 1532 1533 1530 1529 1527 1525 1522 1520 1516 1514 1512 1509 1513 1502 1502 1509 1518 1518 1514 1509 1504 1498 1491 1485 1480 1473 1466 1459 1449 1440 1430 1422 1413 1404 1395
1534 1533 1531 1531 1530 1528 1529 1536 1533 1533 1539 1533 1530 1528 1525 1521 1518 1516 1515 1516 1513 1509 1505 1509 1517 1519 1518 1512 1506 1501 1495 1489 1484 1478 1471 1465 1458 1450 1443 1435 1425 1417 1409 1401
1532 1532 1532 1532 1534 1538 1545 1552 1544 1541 1535 1533 1530 1528 1526 1522 1520 1518 1518 1521 1516 1508 1515 1518 1522 1521 1516 1511 1505 1499 1495 1490 1484 1477 1471 1465 1459 1452 1445 1438 1430 1423 1415 1407
1534 1534 1537 1539 1544 1544 1542 1541 1539 1537 1535 1532 1530 1528 1527 1524 1522 1522 1525 1517 1515 1525 1528 1523 1523 1520 1515 1510 1505 1499 1493 1488 1483 1478 1472 1467 1461 1454 1449 1442 1435 1428 1420 1413
1535 1536 1542 1542 1539 1539 1539 1540 1538 1536 1533 1531 1530 1529 1529 1526 1526 1524 1524 1526 1530 1523 1525 1525 1524 1520 1515 1510 1505 1500 1494 1489 1485 1480 1474 1469 1464 1458 1452 1446 1439 1433 1427 1420
1535 1535 1537 1538 1541 1541 1539 1538 1537 1534 1532 1531 1531 1530 1533 1532 1529 1529 1533 1533 1534 1530 1529 1526 1523 1520 1515 1510 1505 1501 1496 1492 1488 1483 1477 1472 1467 1461 1456 1451 1444 1438 1432 1426
1538 1537 1537 1536 1536 1538 1538 1537 1535 1533 1532 1531 1531 1535 1534 1530 1534 1533 1530 1533 1530 1530 1528 1525 1523 1519 1514 1510 1506 1501 1497 1493 1489 1485 1480 1475 1471 1465 1459 1452 1448 1443 1438 1433